Date,TemperatureHighF,TemperatureAvgF,TemperatureLowF,DewpointHighF,DewpointAvgF,DewpointLowF,HumidityHigh,HumidityAvg,HumidityLow,PressureMaxIn,PressureMinIn,WindSpeedMaxMPH,WindSpeedAvgMPH,GustSpeedMaxMPH,PrecipitationSumIn
2012-1-1,67,58,46,60,46,30,90,67,37,30.28,30.06,9,3,18,0.00
2012-1-2,48,41,32,31,16,6,62,39,22,30.36,30.19,14,4,29,0.00
2012-1-3,38,29,21,16,11,7,81,48,32,30.52,30.35,9,2,15,0.00
2012-1-4,56,35,18,33,23,15,90,67,26,30.40,30.20,8,1,13,0.00
2012-1-5,64,43,28,43,34,27,95,74,39,30.24,30.11,5,0,7,0.00
2012-1-6,69,48,27,54,41,26,96,80,49,30.16,30.01,5,0,10,0.00
2012-1-7,71,59,51,59,54,49,95,85,62,30.08,30.00,8,1,12,0.03
2012-1-8,63,56,48,61,55,47,97,95,90,30.15,30.07,2,0,5,0.97
2012-1-9,70,61,56,63,59,55,97,93,77,30.14,30.02,5,0,10,0.24
2012-1-10,61,59,57,59,58,56,97,96,94,30.02,29.67,7,1,10,0.59
2012-1-11,61,53,48,60,50,46,95,90,83,29.72,29.52,14,2,17,0.73
2012-1-12,52,44,28,48,37,17,95,79,55,30.05,29.68,10,2,19,0.00
2012-1-13,41,30,22,22,19,15,86,65,42,30.26,30.04,8,1,14,0.00
2012-1-14,57,40,20,27,24,17,94,59,29,30.31,30.12,11,2,17,0.00
2012-1-15,60,41,27,34,27,20,93,62,25,30.46,30.26,2,0,6,0.00
2012-1-16,63,53,41,50,35,28,80,52,38,30.40,30.17,7,2,18,0.00
2012-1-17,66,58,48,61,55,43,94,88,81,30.17,29.94,16,4,20,0.48
2012-1-18,48,39,30,42,31,27,89,72,46,30.22,30.08,8,2,13,0.00
2012-1-19,61,45,27,47,31,24,95,63,27,30.15,29.98,11,1,14,0.00
2012-1-20,67,60,53,64,57,47,96,89,74,30.00,29.87,13,2,16,0.34
2012-1-21,69,62,50,64,59,49,96,89,73,30.00,29.84,8,2,18,1.06
2012-1-22,66,58,51,63,56,50,97,95,90,30.03,29.86,12,1,19,0.00
2012-1-23,73,64,51,65,53,39,96,70,30,30.05,29.80,16,3,29,2.02
2012-1-24,66,50,38,42,38,27,94,68,27,30.22,30.06,7,1,8,0.00
2012-1-25,76,62,41,60,50,37,89,66,49,30.16,29.94,7,2,19,0.00
2012-1-26,65,62,54,63,60,50,97,92,83,29.94,29.64,7,1,20,2.60
2012-1-27,57,48,37,50,41,36,95,79,53,30.05,29.75,8,2,16,0.00
2012-1-28,60,45,33,44,32,20,97,66,32,30.32,30.05,11,2,14,0.00
2012-1-29,57,39,25,30,23,11,93,60,17,30.43,30.32,6,1,13,0.00
2012-1-30,66,43,26,36,26,17,94,60,16,30.42,30.30,6,1,11,0.00
2012-1-31,68,53,37,53,40,28,81,63,44,30.32,30.18,6,1,9,0.00
2012-2-1,59,57,54,57,54,50,97,89,76,30.20,30.05,7,1,8,0.55
2012-2-2,69,59,47,59,52,44,97,81,49,30.21,30.09,7,1,10,0.00
2012-2-3,64,55,48,51,44,37,90,68,52,30.27,30.16,7,2,13,0.41
2012-2-4,74,61,54,62,56,49,96,82,66,30.16,29.96,11,2,19,0.46
2012-2-5,61,56,47,57,51,43,96,84,63,30.14,30.00,6,2,13,0.00
2012-2-6,61,50,43,46,43,41,93,77,52,30.19,30.10,8,2,11,0.00
2012-2-7,62,48,36,41,37,29,95,70,30,30.21,30.10,6,1,9,0.00
2012-2-8,58,49,42,42,39,34,87,68,47,30.27,30.14,10,2,14,0.00
2012-2-9,54,43,35,35,33,32,91,71,46,30.29,30.17,6,1,10,0.00
2012-2-10,56,46,37,38,36,34,86,69,52,30.17,29.98,6,1,9,0.00
2012-2-11,44,35,27,37,21,8,86,57,38,30.43,29.99,20,6,25,0.00
2012-2-12,42,30,22,18,11,8,74,46,27,30.51,30.34,12,3,22,0.00
2012-2-13,52,37,21,36,22,17,88,62,27,30.34,30.02,6,1,10,0.26
2012-2-14,51,45,38,46,42,35,93,87,81,30.10,29.95,12,1,14,0.22
2012-2-15,68,54,40,51,45,38,96,74,48,30.17,30.02,9,1,10,0.09
2012-2-16,66,57,51,58,52,47,95,84,61,30.10,29.99,12,1,12,0.37
2012-2-17,68,54,43,47,44,42,94,72,42,30.12,30.00,8,1,10,0.00
2012-2-18,59,51,45,51,46,39,94,83,56,30.01,29.75,11,1,16,0.81
2012-2-19,51,46,38,50,44,34,96,90,79,30.08,29.67,8,2,18,0.10
2012-2-20,63,46,30,41,36,29,96,71,41,30.19,30.07,6,1,10,0.01
2012-2-21,71,56,48,52,44,39,89,67,33,30.17,29.99,9,2,14,0.00
2012-2-22,71,62,49,62,57,46,95,84,63,29.98,29.60,10,2,18,0.07
2012-2-23,80,70,63,65,62,61,94,78,53,29.66,29.46,14,4,26,0.00
2012-2-24,71,59,42,65,39,19,89,52,22,30.18,29.59,18,5,25,0.00
2012-2-25,58,45,30,33,26,20,91,53,24,30.33,30.18,8,1,18,0.00
2012-2-26,64,53,39,36,28,22,74,41,24,30.37,30.22,8,2,14,0.00
2012-2-27,70,58,50,55,50,37,92,74,54,30.37,30.26,7,0,9,0.03
2012-2-28,62,59,55,61,56,51,95,90,81,30.29,30.11,6,1,10,0.42
2012-2-29,73,67,62,66,64,61,95,89,77,30.13,29.86,12,4,24,0.17
2012-3-1,77,68,62,66,64,58,95,85,65,29.94,29.79,8,1,11,1.11
2012-3-2,81,72,62,67,65,60,93,79,57,29.80,29.60,14,6,27,1.38
2012-3-3,62,52,43,61,38,26,95,63,34,29.91,29.63,11,3,15,0.97
2012-3-4,59,48,31,31,26,20,82,47,23,30.07,29.92,11,2,20,0.00
2012-3-5,61,52,43,34,27,20,69,39,22,30.41,30.05,13,3,18,0.00
2012-3-6,68,52,36,36,28,24,71,42,21,30.47,30.33,13,2,16,0.00
2012-3-7,74,63,51,54,50,37,85,64,48,30.40,30.23,12,2,16,0.00
2012-3-8,80,68,57,63,58,49,91,70,52,30.24,30.04,14,3,23,0.19
2012-3-9,60,53,44,57,42,31,95,70,37,30.31,30.12,14,3,17,1.02
2012-3-10,71,56,37,42,37,31,87,52,33,30.37,30.22,6,1,8,0.00
2012-3-11,72,61,51,57,48,33,75,63,48,30.36,30.19,12,2,14,0.00
2012-3-12,69,65,61,63,60,56,91,85,79,30.22,30.13,9,2,18,0.04
2012-3-13,80,69,60,67,63,59,95,84,59,30.20,30.10,5,1,9,0.03
2012-3-14,81,68,59,68,63,58,97,86,53,30.24,30.12,5,0,6,0.01
2012-3-15,87,70,54,67,59,54,97,72,35,30.25,30.09,6,1,12,0.00
2012-3-16,86,70,55,64,57,54,96,68,34,30.18,30.05,6,1,12,0.00
2012-3-17,86,72,56,64,57,53,95,63,33,30.19,30.05,9,1,13,0.00
2012-3-18,86,69,53,61,57,52,96,68,35,30.21,30.07,7,1,14,0.00
2012-3-19,88,70,56,62,57,55,95,68,36,30.12,29.99,10,2,18,0.00
2012-3-20,88,74,59,62,57,55,89,59,36,30.05,29.92,8,1,24,0.00
2012-3-21,82,73,62,65,59,56,83,63,48,30.05,29.94,14,1,20,0.00
2012-3-22,73,66,62,67,61,57,95,84,65,30.08,29.96,7,1,16,1.28
2012-3-23,80,70,63,69,66,60,95,86,64,29.99,29.84,10,3,13,0.38
2012-3-24,74,63,53,59,52,47,97,71,39,29.91,29.81,11,1,15,0.01
2012-3-25,74,62,49,55,52,48,96,73,45,29.95,29.86,10,1,13,0.00
2012-3-26,80,64,50,58,53,48,96,73,38,30.04,29.93,9,1,14,0.00
2012-3-27,86,66,50,57,53,49,96,69,30,30.12,30.01,6,1,13,0.00
2012-3-28,81,68,56,64,56,51,95,71,36,30.14,29.99,7,1,12,0.00
2012-3-29,81,67,55,65,60,53,96,79,51,30.02,29.87,3,0,6,0.01
2012-3-30,77,64,56,67,62,55,97,92,69,29.95,29.80,6,1,14,1.28
2012-3-31,82,70,60,67,63,56,97,82,52,29.88,29.76,10,1,18,0.48
2012-4-1,86,71,57,68,62,56,97,77,48,29.88,29.75,6,1,15,0.01
2012-4-2,88,73,61,69,64,59,97,76,43,29.87,29.73,3,0,7,0.00
2012-4-3,86,71,58,66,62,57,96,76,46,29.94,29.82,6,0,9,0.00
2012-4-4,83,70,61,65,63,60,96,79,49,29.88,29.69,6,1,14,0.00
2012-4-5,74,63,53,65,59,52,97,87,60,29.75,29.61,5,0,25,0.41
2012-4-6,74,60,53,55,52,48,96,77,47,30.05,29.75,10,2,12,0.00
2012-4-7,77,62,48,56,50,47,96,69,36,30.20,30.05,9,1,10,0.00
2012-4-8,77,62,47,56,51,46,96,71,35,30.20,30.06,5,1,12,0.00
2012-4-9,78,63,50,55,47,38,95,62,24,30.12,29.99,7,1,11,0.00
2012-4-10,80,62,46,61,52,44,95,74,35,30.06,29.94,12,1,15,0.02
2012-4-11,69,57,46,55,40,32,96,59,30,30.13,30.01,11,2,13,0.01
2012-4-12,70,52,37,44,37,32,87,58,30,30.20,30.07,3,1,10,0.00
2012-4-13,81,61,42,51,46,40,95,62,29,30.17,30.07,6,0,8,0.00
2012-4-14,82,69,52,59,55,45,89,63,44,30.18,30.05,8,2,17,0.00
2012-4-15,84,73,59,67,63,56,89,72,52,30.07,29.98,11,3,19,0.00
2012-4-16,77,69,63,69,65,61,94,86,76,30.14,30.01,10,2,16,0.32
2012-4-17,79,64,56,68,60,54,96,89,59,30.13,30.03,13,2,16,0.42
2012-4-18,72,62,55,61,57,54,95,84,66,30.04,29.95,6,1,10,0.04
2012-4-19,75,64,56,63,59,55,96,84,65,30.00,29.87,4,1,8,0.00
2012-4-20,78,67,59,65,61,57,96,83,57,29.89,29.74,5,1,7,0.00
2012-4-21,73,64,54,64,58,48,96,84,70,29.78,29.67,10,3,17,0.00
2012-4-22,68,57,48,48,44,41,85,64,42,29.86,29.71,11,5,22,0.00
2012-4-23,62,51,41,43,37,30,87,63,30,29.95,29.85,15,3,22,0.00
2012-4-24,73,56,37,47,41,35,93,63,36,30.00,29.87,8,1,15,0.00
2012-4-25,84,67,50,60,54,46,88,65,40,29.94,29.82,9,2,18,0.00
2012-4-26,86,71,62,63,61,59,90,73,45,29.94,29.88,9,3,18,0.00
2012-5-1,82,76,70,67,66,65,84,72,60,29.97,29.94,2,0,6,0.00
2012-5-2,91,76,64,71,67,62,95,74,45,30.05,29.94,8,1,13,0.09
2012-5-3,78,70,66,71,68,65,96,91,75,30.07,29.97,2,0,8,0.45
2012-5-4,89,75,67,71,68,65,96,81,54,30.06,29.92,5,0,6,0.00
2012-5-5,91,77,63,74,69,62,97,79,51,29.99,29.83,7,0,7,0.01
2012-5-6,90,75,67,71,68,64,97,81,51,29.98,29.82,6,1,12,0.27
2012-5-7,89,72,64,69,66,63,96,83,49,29.90,29.79,7,1,16,0.59
2012-5-8,85,72,62,69,66,61,97,83,54,29.88,29.77,7,1,11,0.93
2012-5-9,74,66,56,65,60,54,96,84,51,29.88,29.79,12,2,15,0.34
2012-5-10,77,64,50,58,52,47,97,69,37,29.95,29.84,6,1,11,0.01
2012-5-11,81,67,51,59,54,50,95,67,38,30.06,29.95,5,0,8,0.00
2012-5-12,81,69,62,66,61,57,94,77,57,30.13,30.02,9,1,20,0.53
2012-5-13,79,69,64,72,66,62,96,90,71,30.04,29.87,7,1,16,1.10
2012-5-14,75,67,62,65,63,60,97,87,68,29.97,29.88,4,1,7,0.00
2012-5-15,81,70,59,68,63,59,97,80,58,29.97,29.88,7,1,10,0.00
2012-5-16,84,71,60,65,61,57,96,74,42,29.98,29.87,6,1,11,0.00
2012-5-17,87,72,58,66,61,57,97,71,39,29.94,29.85,7,1,10,0.00
2012-5-18,88,74,62,66,62,58,94,68,43,29.99,29.90,6,0,8,0.00
2012-5-19,86,74,61,64,62,58,93,68,44,30.07,29.96,5,0,10,0.00
2012-5-20,88,74,62,64,62,58,95,68,40,30.09,29.96,6,1,10,0.00
2012-5-21,83,73,62,67,64,61,96,76,49,30.01,29.88,5,1,10,0.00
2012-5-22,81,68,59,66,62,58,96,81,57,30.01,29.80,7,1,25,0.66
2012-5-23,86,71,56,65,58,55,97,68,35,29.86,29.76,5,1,11,0.00
2012-5-24,91,75,58,72,64,56,94,73,45,29.89,29.79,8,1,13,0.00
2012-5-25,94,78,65,71,68,64,95,73,42,30.04,29.89,4,0,9,0.00
2012-5-26,94,81,65,73,68,64,96,68,40,30.10,29.98,5,1,10,0.00
2012-5-27,95,82,68,73,70,66,93,69,45,30.01,29.88,4,0,7,0.00
2012-5-28,93,82,70,70,68,66,91,65,41,29.94,29.79,6,1,11,0.00
2012-5-29,92,81,68,72,70,65,92,70,49,29.86,29.73,13,1,33,0.25
2012-5-30,95,79,65,71,66,60,97,68,31,29.84,29.74,5,0,7,0.01
2012-5-31,87,76,68,70,65,61,86,69,49,29.82,29.68,8,1,14,0.00
2012-6-1,78,70,60,66,60,52,94,73,41,29.90,29.72,7,2,14,0.00
2012-6-2,82,68,51,60,56,50,95,67,44,29.98,29.87,7,1,12,0.00
2012-6-3,92,76,61,72,66,59,93,73,51,29.95,29.82,13,1,19,0.00
2012-6-4,84,73,67,73,69,65,96,87,67,29.90,29.74,11,1,15,0.61
2012-6-5,91,77,68,72,69,67,97,78,50,29.75,29.63,8,1,10,0.00
2012-6-6,86,76,66,70,65,61,93,71,46,29.88,29.72,6,1,11,0.00
2012-6-7,87,75,62,70,65,58,88,72,51,29.94,29.87,4,1,10,0.00
2012-6-8,89,77,66,68,64,61,91,66,41,29.98,29.88,12,1,12,0.00
2012-6-9,79,72,67,68,64,62,91,79,58,29.97,29.87,8,1,15,0.07
2012-6-10,77,72,69,73,69,66,94,92,86,29.93,29.87,9,2,14,0.22
2012-6-11,88,76,68,77,72,66,96,87,69,30.00,29.87,10,1,27,0.11
2012-6-12,87,76,65,72,68,64,96,79,53,30.00,29.88,8,1,19,0.00
2012-6-13,90,79,69,70,66,62,94,68,42,29.95,29.85,6,1,12,0.00
2012-6-14,96,80,65,73,68,63,94,69,39,29.98,29.87,5,0,12,0.00
2012-6-15,91,80,68,71,68,65,92,70,48,30.07,29.95,4,0,9,0.00
2012-6-16,89,78,68,68,64,62,86,63,42,30.16,30.00,5,0,9,0.00
2012-6-17,91,78,65,66,62,60,86,61,39,30.09,29.91,4,0,9,0.00
2012-6-18,92,78,63,71,64,60,92,63,40,30.01,29.92,11,0,13,0.00
2012-6-19,92,79,63,70,63,60,91,63,38,30.08,29.99,8,0,10,0.00
2012-6-20,90,78,64,68,64,60,87,65,45,30.09,29.98,6,1,9,0.00
2012-6-21,94,80,62,67,65,61,94,64,40,30.04,29.85,8,1,13,0.00
2012-6-22,98,82,64,69,66,62,94,62,35,29.91,29.78,4,0,9,0.00
2012-6-23,101,86,70,72,69,66,89,62,32,29.87,29.80,7,1,10,0.00
2012-6-24,99,84,72,77,72,70,93,70,42,29.88,29.75,6,1,12,0.02
2012-6-25,98,85,73,72,70,67,87,62,39,29.78,29.59,15,2,16,0.00
2012-6-26,97,85,70,70,62,49,68,49,28,29.77,29.63,11,2,15,0.00
2012-6-27,98,81,62,64,58,50,73,48,27,29.95,29.77,4,1,11,0.00
2012-6-28,104,85,65,74,66,61,89,58,26,30.02,29.91,7,1,10,0.00
2012-6-29,106,89,72,74,69,64,92,57,26,29.96,29.78,6,1,11,0.00
2012-6-30,107,90,73,73,70,67,85,54,29,29.88,29.77,6,1,10,0.00
2012-7-1,105,88,77,76,72,69,86,61,33,29.95,29.86,6,1,10,0.00
2012-7-2,91,81,76,78,73,70,89,77,60,30.07,29.93,5,1,10,0.02
2012-7-3,99,86,72,75,69,62,95,63,30,30.00,29.85,11,2,16,0.00
2012-7-4,101,84,70,73,68,60,91,62,26,30.01,29.87,7,1,11,0.00
2012-7-5,99,84,73,75,71,69,91,68,41,30.00,29.84,16,2,17,0.04
2012-7-6,101,84,71,75,71,68,92,67,38,29.96,29.83,6,1,11,0.00
2012-7-7,88,79,74,76,72,69,93,80,60,30.01,29.91,7,1,9,0.15
2012-7-8,97,84,73,75,73,68,94,72,44,30.03,29.87,8,2,16,0.00
2012-7-9,96,82,72,74,72,68,96,73,42,29.96,29.82,8,1,26,1.55
2012-7-10,96,78,69,76,70,68,97,81,44,29.96,29.84,9,1,23,0.24
2012-7-11,87,74,68,73,70,67,96,87,60,30.00,29.92,6,1,15,0.92
2012-7-12,82,73,69,75,70,68,96,91,71,30.02,29.94,8,1,13,0.14
2012-7-13,95,78,68,73,70,67,97,79,43,30.04,29.94,5,0,13,0.22
2012-7-14,93,80,72,77,72,70,96,79,49,30.07,29.96,10,1,19,0.01
2012-7-15,96,82,71,76,73,70,95,76,47,30.11,29.98,6,1,9,0.00
2012-7-16,96,80,72,76,74,71,96,80,49,30.05,29.92,5,1,9,0.00
2012-7-17,93,82,73,78,74,69,96,78,55,29.98,29.86,7,1,14,0.00
2012-7-18,80,74,71,74,71,69,96,90,79,30.05,29.93,3,0,10,2.00
2012-7-19,94,80,69,77,73,68,97,82,58,30.05,29.90,7,1,8,0.01
2012-7-20,87,80,75,77,75,72,93,84,70,29.99,29.88,8,1,12,0.00
2012-7-21,89,80,74,77,74,72,94,84,65,30.02,29.91,6,1,12,0.00
2012-7-22,95,83,72,76,73,71,96,74,48,30.11,30.00,6,1,11,0.00
2012-7-23,98,85,72,76,74,70,96,72,45,30.15,30.00,6,1,7,0.00
2012-7-24,96,85,73,77,74,71,96,72,45,30.07,29.91,6,1,12,0.00
2012-7-25,99,86,74,77,74,72,95,70,43,29.99,29.86,8,1,12,0.00
2012-7-26,98,86,74,78,75,72,94,72,47,29.94,29.82,6,1,11,0.00
2012-7-27,96,80,72,78,74,71,96,84,57,29.97,29.87,7,1,14,0.26
2012-7-28,97,83,71,76,74,70,97,76,51,30.04,29.91,5,1,10,0.00
2012-7-29,96,86,75,78,72,65,94,66,36,29.98,29.88,9,1,12,0.00
2012-7-30,95,83,71,76,71,67,91,70,43,29.97,29.83,4,1,9,0.00
2012-7-31,89,78,69,79,74,68,97,88,70,29.98,29.82,16,2,25,6.69
2012-8-1,100,85,75,80,76,72,97,78,44,29.91,29.80,3,0,8,0.00
2012-8-2,92,77,74,77,74,71,97,89,57,29.90,29.82,5,0,11,0.73
2012-8-3,91,78,72,79,74,71,98,88,67,29.94,29.84,6,1,10,0.00
2012-8-4,95,83,71,77,74,70,97,76,52,30.04,29.92,6,1,8,0.00
2012-8-5,95,83,72,76,73,71,95,74,51,30.12,29.96,4,0,9,0.00
2012-8-6,95,81,74,77,74,71,93,79,52,30.04,29.89,5,1,11,0.00
2012-8-7,93,81,74,79,75,72,96,82,58,29.95,29.84,4,0,9,0.00
2012-8-8,93,82,73,79,75,71,97,79,57,29.97,29.87,3,0,10,0.00
2012-8-9,85,76,70,77,73,68,96,89,76,29.92,29.76,4,1,13,0.58
2012-8-10,88,74,68,77,71,67,96,89,69,29.85,29.75,6,1,15,2.09
2012-8-11,85,76,66,73,68,62,97,78,47,29.94,29.78,7,1,11,0.01
2012-8-12,87,73,60,67,63,59,97,73,41,30.01,29.93,8,0,11,0.00
2012-8-13,86,71,61,75,67,60,97,88,67,30.00,29.88,8,0,12,0.30
2012-8-14,91,78,68,77,72,67,97,82,55,29.92,29.83,8,1,10,0.45
2012-8-15,86,77,67,74,71,67,97,84,60,29.96,29.87,4,0,7,0.00
2012-8-16,94,79,68,76,72,67,97,80,49,30.00,29.87,3,0,9,0.00
2012-8-17,84,75,68,74,71,67,96,87,66,29.98,29.86,10,1,15,0.21
2012-8-18,88,74,69,76,71,67,97,89,63,29.91,29.81,4,0,16,0.54
2012-8-19,82,73,68,73,70,67,97,91,71,29.86,29.80,5,0,8,0.11
2012-8-20,87,75,66,70,66,61,98,76,43,29.91,29.84,2,0,9,0.01
2012-8-21,88,74,61,67,63,60,97,73,41,29.99,29.90,6,0,8,0.00
2012-8-22,88,74,61,66,62,59,96,71,38,30.06,29.98,8,1,15,0.00
2012-8-23,90,75,60,67,63,59,97,71,39,30.08,29.99,6,0,7,0.00
2012-8-24,92,76,61,72,67,60,96,76,46,30.06,29.95,4,0,11,0.02
2012-8-25,91,78,70,74,71,67,92,78,53,30.06,29.98,5,0,9,0.00
2012-8-26,92,79,68,71,68,65,94,73,42,30.11,29.97,3,0,8,0.01
2012-8-27,91,80,67,71,69,66,96,72,49,30.03,29.85,9,1,14,0.00
2012-8-28,86,78,74,77,73,68,94,83,71,29.90,29.80,6,2,14,0.32
2012-8-29,86,79,74,76,74,72,94,85,69,29.89,29.80,5,1,12,0.01
2012-8-30,83,78,75,76,74,72,92,87,79,30.02,29.83,6,1,13,0.01
2012-8-31,90,81,76,78,75,73,93,82,61,30.12,30.03,10,1,13,0.04
2012-9-1,90,79,73,77,74,71,97,86,64,30.13,30.00,9,1,12,0.13
2012-9-2,89,80,73,77,75,72,97,85,68,30.01,29.86,7,1,16,0.00
2012-9-3,84,75,70,78,72,69,96,91,81,29.94,29.80,6,1,15,0.81
2012-9-4,83,76,72,77,74,71,97,93,83,29.86,29.80,5,1,11,0.17
2012-9-5,90,78,72,76,73,70,97,84,64,29.88,29.79,4,0,6,0.00
2012-9-6,87,78,73,77,74,72,96,88,71,29.94,29.84,6,1,10,0.00
2012-9-7,94,81,70,77,74,69,98,80,54,29.92,29.75,6,0,8,0.00
2012-9-8,84,75,65,77,70,62,96,86,68,29.89,29.75,9,1,15,0.06
2012-9-9,79,67,56,62,58,55,97,74,46,30.00,29.88,9,1,15,0.01
2012-9-10,85,69,55,63,58,54,97,73,42,30.08,30.00,5,1,9,0.00
2012-9-11,85,71,59,67,61,58,97,74,41,30.17,30.05,6,1,12,0.00
2012-9-12,84,73,63,65,62,60,90,71,48,30.22,30.11,6,0,12,0.00
2012-9-13,84,73,63,67,63,59,92,72,53,30.22,30.11,6,1,13,0.00
2012-9-14,85,72,60,69,64,59,96,77,47,30.18,30.08,4,0,7,0.00
2012-9-15,87,74,64,68,65,63,95,76,49,30.14,30.02,4,0,6,0.00
2012-9-16,90,74,64,72,68,63,97,81,51,30.04,29.92,6,0,13,0.11
2012-9-17,82,73,69,74,71,68,97,92,74,29.97,29.68,7,1,13,1.20
2012-9-18,78,70,62,69,67,59,97,90,71,29.95,29.64,7,2,13,3.64
2012-9-19,78,63,50,58,53,49,97,74,39,30.05,29.95,7,1,12,0.01
2012-9-20,83,64,49,61,55,48,97,78,37,30.07,29.97,3,0,6,0.01
2012-9-21,86,69,54,64,60,53,97,76,47,30.05,29.91,6,0,9,0.00
2012-9-22,87,72,60,70,63,57,97,77,52,30.06,29.95,5,1,10,0.00
2012-9-23,81,66,53,60,56,52,97,73,40,30.14,30.05,6,1,11,0.00
2012-9-24,78,62,48,54,49,44,92,66,32,30.19,30.07,6,1,9,0.00
2012-9-25,84,67,52,63,55,50,94,70,36,30.14,30.06,4,0,7,0.00
2012-9-26,87,70,56,69,62,55,96,79,47,30.14,30.04,4,0,7,0.00
2012-9-27,90,73,61,71,66,60,97,79,46,30.14,30.01,3,0,6,0.00
2012-9-28,88,74,62,70,66,61,97,79,48,30.06,29.93,4,0,8,0.00
2012-9-29,83,73,65,72,68,64,97,85,64,29.96,29.84,5,0,6,0.00
2012-9-30,70,68,65,69,66,62,97,92,86,29.84,29.61,5,0,8,1.29
2012-10-1,83,74,65,74,70,62,96,86,67,29.61,29.47,15,3,24,0.41
2012-10-2,66,62,53,62,59,53,97,91,81,29.96,29.61,4,1,7,0.02
2012-10-3,78,63,50,65,57,50,98,83,52,30.14,29.96,5,0,7,0.01
2012-10-4,83,67,55,65,60,54,97,81,48,30.24,30.13,3,0,6,0.00
2012-10-5,85,68,55,65,60,54,97,79,45,30.15,29.96,5,0,8,0.01
2012-10-6,75,63,57,66,59,53,97,88,73,30.02,29.93,9,2,13,0.00
2012-10-7,60,56,51,53,48,45,90,78,62,30.11,29.98,12,3,15,0.00
2012-10-8,62,54,49,51,48,46,92,80,63,30.15,30.04,11,2,11,0.00
2012-10-9,72,56,45,55,50,44,97,81,50,30.13,29.99,4,0,8,0.00
2012-10-10,76,61,47,62,55,47,97,82,59,30.15,30.03,7,1,11,0.01
2012-10-11,79,62,50,63,56,50,97,83,55,30.24,30.13,4,1,7,0.01
2012-10-12,83,68,56,67,63,56,97,83,58,30.26,30.15,6,0,11,0.00
2012-10-13,84,72,63,67,64,61,94,77,55,30.23,30.09,9,1,12,0.00
2012-10-14,79,72,64,69,65,60,90,80,69,30.15,29.91,9,2,14,0.01
2012-10-15,76,69,64,67,62,52,97,82,43,29.95,29.88,10,2,17,1.89
2012-10-17,67,67,67,59,58,57,76,73,70,29.72,29.69,4,3,13,0.01
2012-10-18,77,65,48,65,55,42,96,75,30,29.83,29.66,10,1,16,1.12
2012-10-19,73,56,42,50,43,37,97,68,27,29.83,29.73,6,1,19,0.00
2012-10-20,72,54,42,51,47,41,97,79,45,29.97,29.84,6,1,10,0.00
2012-10-21,79,59,43,57,50,42,97,78,39,30.12,29.96,4,0,6,0.00
2012-10-22,82,62,46,57,52,46,97,76,33,30.17,30.04,5,1,7,0.01
2012-10-23,80,61,48,59,52,48,97,77,37,30.15,30.02,3,0,9,0.00
2012-10-24,81,63,48,63,56,47,97,80,49,30.13,29.99,5,0,9,0.01
2012-10-25,81,66,54,65,60,53,97,81,51,30.03,29.93,4,0,10,0.00
2012-10-26,84,69,57,67,61,53,97,79,46,29.99,29.86,6,1,14,0.01
2012-10-27,58,52,50,52,47,45,88,84,81,29.96,29.88,13,4,17,0.00
2012-10-28,60,53,46,46,42,35,85,67,47,29.99,29.86,14,4,22,0.00
2012-10-29,56,47,37,35,32,27,86,58,34,30.05,29.92,13,4,26,0.00
2012-10-30,58,46,37,34,30,27,83,58,32,29.93,29.82,8,2,21,0.00
2012-10-31,68,50,34,43,39,32,96,70,38,29.96,29.86,7,1,13,0.00
2012-11-1,67,50,35,44,38,32,96,70,30,30.04,29.94,8,1,13,0.00
2012-11-2,80,57,39,56,48,38,97,76,40,30.01,29.91,5,1,8,0.00
2012-11-3,83,63,47,64,55,46,97,79,46,30.08,29.95,6,0,10,0.00
2012-11-4,69,58,44,60,52,41,96,82,57,30.05,29.96,7,1,10,0.12
2012-11-5,65,52,38,49,42,37,94,74,40,30.07,29.91,4,0,8,0.51
2012-11-6,56,50,42,48,46,41,97,87,69,29.98,29.89,8,1,12,0.02
2012-11-7,57,48,38,47,41,36,95,78,55,30.10,29.90,12,2,16,0.02
2012-11-8,60,45,34,44,39,33,97,82,50,30.22,30.10,8,1,9,0.01
2012-11-9,70,48,32,49,40,31,97,78,34,30.30,30.16,3,0,5,0.00
2012-11-10,73,53,36,52,42,35,97,73,34,30.32,30.19,5,1,10,0.00
2012-11-11,74,59,42,55,49,40,92,70,50,30.31,30.10,12,1,21,0.00
2012-11-12,63,56,40,59,51,36,94,85,71,30.34,30.09,10,2,15,0.59
2012-11-13,56,44,36,36,31,28,87,65,35,30.39,30.26,10,3,15,0.00
2012-11-14,53,45,34,45,39,30,89,79,70,30.31,30.22,4,0,8,0.00
2012-11-15,62,47,35,45,41,34,96,81,52,30.28,30.18,8,1,11,0.00
2012-11-16,65,47,34,45,38,33,97,74,39,30.30,30.20,9,1,11,0.00
2012-11-17,64,46,32,40,34,30,95,68,32,30.39,30.28,7,1,14,0.00
2012-11-18,64,47,32,44,38,30,96,76,46,30.38,30.25,7,1,9,0.00
2012-11-19,67,49,35,49,43,34,97,82,51,30.29,30.15,3,0,5,0.00
2012-11-20,69,52,40,51,44,39,97,78,43,30.18,30.05,5,0,8,0.00
2012-11-21,71,54,41,53,47,40,96,79,49,30.15,30.08,8,1,10,0.00
2012-11-22,73,53,38,53,45,37,97,77,38,30.22,30.12,6,0,7,0.00
2012-11-23,69,53,40,55,47,36,97,81,54,30.18,30.09,6,1,12,0.00
2012-11-24,51,41,29,36,27,22,86,61,34,30.25,30.15,11,2,17,0.00
2012-11-25,62,40,25,31,27,23,94,65,24,30.20,30.07,4,0,10,0.00
2012-11-26,67,50,29,53,41,27,94,72,51,30.19,30.07,6,1,9,0.00
2012-11-27,59,52,43,56,49,39,96,88,79,30.27,30.04,9,3,15,0.51
2012-11-28,57,43,33,39,34,30,93,72,37,30.41,30.26,7,2,10,0.00
2012-11-29,63,42,28,41,35,27,96,78,42,30.41,30.27,4,0,8,0.00
2012-11-30,67,50,37,53,45,36,97,86,61,30.32,30.19,2,0,5,0.00
2012-12-1,73,54,41,54,47,40,97,79,48,30.30,30.19,7,1,11,0.01
2012-12-2,75,58,44,57,50,42,95,78,50,30.31,30.18,7,1,15,0.00
2012-12-3,74,56,43,58,51,42,97,84,56,30.26,30.15,9,1,14,0.00
2012-12-4,70,60,48,64,57,47,97,90,78,30.25,30.14,11,1,12,0.04
2012-12-5,68,62,56,63,59,53,97,90,77,30.16,30.05,4,0,9,0.03
2012-12-6,73,61,51,58,54,49,94,77,52,30.07,29.95,8,1,12,0.00
2012-12-7,68,61,56,59,56,54,93,85,72,30.01,29.89,11,1,13,0.00
2012-12-8,64,61,56,62,59,54,97,94,91,29.98,29.90,3,0,7,0.03
2012-12-9,71,64,57,63,59,56,97,87,71,30.02,29.84,10,2,18,0.01
2012-12-10,68,58,41,64,56,37,97,92,84,29.93,29.68,9,3,17,1.74
2012-12-11,41,39,37,37,33,31,87,78,69,30.18,29.92,8,2,12,0.00
2012-12-12,54,42,35,39,33,29,81,69,53,30.26,30.15,8,2,10,0.00
2012-12-13,60,42,29,41,34,27,94,76,45,30.35,30.23,5,0,9,0.00
2012-12-14,62,47,32,45,40,31,97,78,53,30.33,30.12,4,0,11,0.00
2012-12-15,63,56,51,57,50,44,86,78,69,30.16,29.95,8,2,15,0.00
2012-12-16,63,59,56,61,58,55,97,94,86,29.95,29.79,7,2,21,1.63
2012-12-17,64,58,50,60,56,49,97,93,81,29.80,29.66,5,1,13,0.04
2012-12-18,65,49,38,48,41,36,97,77,35,29.98,29.78,4,0,8,0.01
2012-12-19,71,53,36,49,42,35,97,71,37,30.07,29.92,5,1,10,0.00
2012-12-20,64,52,40,62,43,26,97,72,52,30.04,29.66,12,3,24,1.07
2012-12-21,49,40,34,24,18,13,58,43,24,30.29,30.04,14,3,19,0.00
2012-12-22,56,38,25,27,20,13,90,54,24,30.36,30.20,8,1,10,0.00
2012-12-23,54,43,28,46,34,26,93,71,46,30.20,29.95,7,1,12,0.06
2012-12-24,69,55,42,61,50,41,97,85,55,29.95,29.79,9,2,14,0.53
2012-12-25,56,50,41,56,49,40,97,96,91,29.93,29.45,12,2,18,1.74
2012-12-26,58,39,33,57,34,28,97,83,76,30.11,29.45,9,3,23,0.02
2012-12-27,39,34,28,32,30,27,95,84,74,30.17,30.07,8,2,13,0.00
2012-12-28,48,41,30,42,36,29,94,84,65,30.07,29.78,8,1,17,0.69
2012-12-29,45,38,30,43,32,25,96,81,66,30.35,29.78,10,3,19,0.02
2012-12-30,48,35,27,30,26,23,86,70,42,30.50,30.34,8,1,12,0.00
2012-12-31,52,44,34,43,34,27,85,67,50,30.36,30.06,7,1,11,0.00
2013-1-1,56,53,48,54,51,44,96,92,77,30.06,29.90,9,1,15,1.54